When you browse on this site, cookies collect data to enhance your experience and personalize the content and advertising you see.
Visit our Privacy Policy to learn more. By continuing to use the site, you agree to this use of cookies and data.

Stündliche Wetter Suesca

Heute, 15 Juli, Mittwoch

Zeit Temperatur Niederschläge Wind Luftdruck Luftfeuchtigkeit
00:00 +9°C° 0 mm 1 m/S 553 mmHg 93%
01:00 +9°C° 0 mm 1 m/S 552 mmHg 93%
02:00 +9°C° 0 mm 1 m/S 552 mmHg 92%
03:00 +9°C° 0 mm 1 m/S 552 mmHg 91%
04:00 +10°C° 0 mm 1 m/S 552 mmHg 90%
05:00 +10°C° 0 mm 1 m/S 553 mmHg 89%
06:00 +10°C° 0 mm 1 m/S 553 mmHg 89%
07:00 +11°C° 0 mm 1 m/S 554 mmHg 88%
08:00 +11°C° 0.2 mm 1 m/S 554 mmHg 88%
09:00 +12°C° 0.2 mm 1 m/S 554 mmHg 87%
10:00 +13°C° 0.2 mm 1 m/S 555 mmHg 87%
11:00 +13°C° 0.2 mm 1 m/S 554 mmHg 86%
12:00 +13°C° 0.2 mm 1 m/S 554 mmHg 86%
13:00 +13°C° 0.2 mm 1 m/S 553 mmHg 86%
14:00 +14°C° 0.1 mm 1 m/S 553 mmHg 82%
15:00 +15°C° 0.1 mm 1 m/S 553 mmHg 78%
16:00 +16°C° 0.1 mm 1 m/S 553 mmHg 74%
17:00 +14°C° 0.1 mm 1 m/S 553 mmHg 81%
18:00 +12°C° 0.1 mm 1 m/S 552 mmHg 88%
19:00 +11°C° 0.1 mm 1 m/S 552 mmHg 95%
20:00 +11°C° 0 mm 1 m/S 552 mmHg 95%
21:00 +11°C° 0 mm 1 m/S 553 mmHg 95%
22:00 +11°C° 0 mm 1 m/S 553 mmHg 95%
23:00 +11°C° 0 mm 1 m/S 553 mmHg 94%

Morgen, 16 Juli, Donnerstag

Zeit Temperatur Niederschläge Wind Luftdruck Luftfeuchtigkeit
00:00 +10°C° 0 mm 1 m/S 553 mmHg 93%
01:00 +10°C° 0 mm 1 m/S 553 mmHg 93%
02:00 +9°C° 0 mm 1 m/S 552 mmHg 93%
03:00 +9°C° 0 mm 1 m/S 551 mmHg 94%
04:00 +8°C° 0 mm 1 m/S 551 mmHg 95%
05:00 +9°C° 0 mm 1 m/S 552 mmHg 94%
06:00 +10°C° 0 mm 1 m/S 552 mmHg 92%
07:00 +10°C° 0 mm 1 m/S 553 mmHg 90%
08:00 +12°C° 0 mm 1 m/S 554 mmHg 84%
09:00 +14°C° 0 mm 2 m/S 555 mmHg 77%
10:00 +16°C° 0 mm 2 m/S 556 mmHg 70%
11:00 +17°C° 0.1 mm 2 m/S 556 mmHg 67%
12:00 +18°C° 0.1 mm 2 m/S 556 mmHg 65%
13:00 +19°C° 0.1 mm 2 m/S 556 mmHg 62%
14:00 +18°C° 0.4 mm 2 m/S 555 mmHg 66%
15:00 +18°C° 0.4 mm 2 m/S 554 mmHg 70%
16:00 +17°C° 0.4 mm 2 m/S 554 mmHg 74%
17:00 +15°C° 0.2 mm 2 m/S 553 mmHg 81%
18:00 +13°C° 0.2 mm 2 m/S 553 mmHg 89%
19:00 +11°C° 0.2 mm 1 m/S 552 mmHg 96%
20:00 +11°C° 0.1 mm 1 m/S 552 mmHg 96%
21:00 +11°C° 0.1 mm 1 m/S 553 mmHg 96%
22:00 +11°C° 0.1 mm 1 m/S 553 mmHg 96%
23:00 +11°C° 0 mm 1 m/S 553 mmHg 96%

übermorgen, 17 Juli, Freitag

Zeit Temperatur Niederschläge Wind Luftdruck Luftfeuchtigkeit
00:00 +11°C° 0 mm 1 m/S 553 mmHg 96%
01:00 +10°C° 0 mm 0 m/S 553 mmHg 96%
02:00 +11°C° 0 mm 1 m/S 553 mmHg 96%
03:00 +10°C° 0 mm 1 m/S 552 mmHg 96%
04:00 +10°C° 0 mm 1 m/S 552 mmHg 97%
05:00 +11°C° 0 mm 1 m/S 553 mmHg 95%
06:00 +11°C° 0 mm 1 m/S 553 mmHg 94%
07:00 +11°C° 0 mm 1 m/S 554 mmHg 93%
08:00 +13°C° 0.1 mm 1 m/S 554 mmHg 87%
09:00 +14°C° 0.1 mm 1 m/S 555 mmHg 81%
10:00 +16°C° 0.1 mm 2 m/S 556 mmHg 75%
11:00 +17°C° 0.3 mm 2 m/S 556 mmHg 72%
12:00 +18°C° 0.3 mm 3 m/S 556 mmHg 68%
13:00 +19°C° 0.3 mm 3 m/S 556 mmHg 65%
14:00 +18°C° 0.3 mm 3 m/S 555 mmHg 67%
15:00 +17°C° 0.3 mm 3 m/S 554 mmHg 69%
16:00 +17°C° 0.3 mm 2 m/S 554 mmHg 71%
17:00 +15°C° 0.1 mm 2 m/S 553 mmHg 79%
18:00 +13°C° 0.1 mm 2 m/S 553 mmHg 87%
19:00 +11°C° 0.1 mm 1 m/S 552 mmHg 95%
20:00 +11°C° 0 mm 1 m/S 553 mmHg 95%
21:00 +11°C° 0 mm 1 m/S 553 mmHg 94%
22:00 +11°C° 0 mm 1 m/S 553 mmHg 94%
23:00 +11°C° 0 mm 1 m/S 553 mmHg 94%

18 Juli, Samstag

Zeit Temperatur Niederschläge Wind Luftdruck Luftfeuchtigkeit
00:00 +11°C° 0 mm 1 m/S 553 mmHg 94%
01:00 +11°C° 0 mm 1 m/S 553 mmHg 94%
02:00 +11°C° 0 mm 1 m/S 552 mmHg 94%
03:00 +11°C° 0 mm 1 m/S 552 mmHg 94%
04:00 +11°C° 0 mm 1 m/S 552 mmHg 94%
05:00 +11°C° 0.1 mm 1 m/S 553 mmHg 94%
06:00 +11°C° 0.1 mm 1 m/S 553 mmHg 94%
07:00 +11°C° 0.1 mm 1 m/S 553 mmHg 94%
08:00 +12°C° 0.1 mm 1 m/S 554 mmHg 90%
09:00 +13°C° 0.1 mm 1 m/S 555 mmHg 86%
10:00 +14°C° 0.1 mm 1 m/S 555 mmHg 83%
11:00 +15°C° 0.4 mm 2 m/S 555 mmHg 78%
12:00 +17°C° 0.4 mm 2 m/S 555 mmHg 74%
13:00 +18°C° 0.4 mm 2 m/S 555 mmHg 70%
14:00 +17°C° 0.5 mm 3 m/S 555 mmHg 72%
15:00 +17°C° 0.5 mm 3 m/S 554 mmHg 73%
16:00 +17°C° 0.5 mm 3 m/S 553 mmHg 75%
17:00 +15°C° 0.2 mm 2 m/S 553 mmHg 82%
18:00 +13°C° 0.2 mm 1 m/S 552 mmHg 89%
19:00 +11°C° 0.2 mm 1 m/S 552 mmHg 96%
20:00 +11°C° 0 mm 1 m/S 552 mmHg 96%
21:00 +11°C° 0 mm 1 m/S 553 mmHg 96%
22:00 +11°C° 0 mm 1 m/S 553 mmHg 96%
23:00 +11°C° 0 mm 1 m/S 553 mmHg 95%

19 Juli, Sonntag

Zeit Temperatur Niederschläge Wind Luftdruck Luftfeuchtigkeit
00:00 +11°C° 0 mm 1 m/S 553 mmHg 95%
01:00 +11°C° 0 mm 1 m/S 552 mmHg 94%
02:00 +11°C° 0 mm 1 m/S 552 mmHg 94%
03:00 +11°C° 0 mm 1 m/S 552 mmHg 94%
04:00 +11°C° 0 mm 1 m/S 552 mmHg 94%
05:00 +11°C° 0 mm 1 m/S 553 mmHg 93%
06:00 +11°C° 0 mm 1 m/S 553 mmHg 92%
07:00 +12°C° 0 mm 1 m/S 553 mmHg 92%
08:00 +13°C° 0.1 mm 1 m/S 554 mmHg 87%
09:00 +14°C° 0.1 mm 1 m/S 555 mmHg 82%
10:00 +16°C° 0.1 mm 2 m/S 556 mmHg 77%
11:00 +17°C° 0.3 mm 2 m/S 555 mmHg 73%
12:00 +18°C° 0.3 mm 3 m/S 555 mmHg 69%
13:00 +18°C° 0.3 mm 3 m/S 555 mmHg 65%
14:00 +18°C° 0.3 mm 3 m/S 555 mmHg 66%
15:00 +18°C° 0.3 mm 3 m/S 554 mmHg 68%
16:00 +17°C° 0.3 mm 3 m/S 553 mmHg 70%
17:00 +15°C° 0.1 mm 2 m/S 553 mmHg 78%
18:00 +13°C° 0.1 mm 1 m/S 552 mmHg 86%
19:00 +11°C° 0.1 mm 1 m/S 552 mmHg 95%
20:00 +11°C° 0 mm 1 m/S 552 mmHg 95%
21:00 +11°C° 0 mm 1 m/S 552 mmHg 95%
22:00 +11°C° 0 mm 1 m/S 553 mmHg 96%
23:00 +11°C° 0.2 mm 1 m/S 552 mmHg 96%

20 Juli, Montag

Zeit Temperatur Niederschläge Wind Luftdruck Luftfeuchtigkeit
00:00 +11°C° 0.2 mm 1 m/S 552 mmHg 95%
01:00 +11°C° 0.2 mm 1 m/S 552 mmHg 95%
02:00 +11°C° 0.5 mm 1 m/S 552 mmHg 96%
03:00 +11°C° 0.5 mm 1 m/S 552 mmHg 96%
04:00 +11°C° 0.5 mm 1 m/S 552 mmHg 96%
05:00 +11°C° 0.1 mm 1 m/S 552 mmHg 96%
06:00 +11°C° 0.1 mm 1 m/S 553 mmHg 96%
07:00 +11°C° 0.1 mm 1 m/S 553 mmHg 96%
08:00 +12°C° 0.2 mm 1 m/S 553 mmHg 95%
09:00 +12°C° 0.2 mm 1 m/S 554 mmHg 94%
10:00 +12°C° 0.2 mm 1 m/S 554 mmHg 93%
11:00 +13°C° 0.2 mm 1 m/S 554 mmHg 91%
12:00 +13°C° 0.2 mm 1 m/S 554 mmHg 90%
13:00 +14°C° 0.2 mm 1 m/S 553 mmHg 88%
14:00 +14°C° 0.2 mm 1 m/S 553 mmHg 89%
15:00 +13°C° 0.2 mm 1 m/S 552 mmHg 90%
16:00 +13°C° 0.2 mm 1 m/S 552 mmHg 91%
17:00 +12°C° 0 mm 1 m/S 551 mmHg 93%
18:00 +12°C° 0 mm 1 m/S 551 mmHg 95%
19:00 +11°C° 0 mm 1 m/S 551 mmHg 97%
20:00 +10°C° 0 mm 1 m/S 551 mmHg 97%
21:00 +10°C° 0 mm 1 m/S 552 mmHg 97%
22:00 +9°C° 0 mm 1 m/S 552 mmHg 97%
23:00 +10°C° 0 mm 1 m/S 552 mmHg 97%
Mehr zeigen